Location: Newark
(35.2672°N, 80.7344°W)
Time: 22:07:33
(UTC+00:00)

Transit 2A Rocket - Pass Details

Date: 30 January 2020
Orbit: 592 x 911 km, 66.7° (Epoch: 19 February)

Event Time Altitude Azimuth Distance (km) Brightness Sun altitude
Rises 08:54:55 0° 204° (SSW) 2,857 - -42.8°
Reaches altitude 10° 08:57:11 10° 203° (SSW) 1,935 - -42.3°
Maximum altitude 09:01:29 83° 118° (ESE) 600 - -41.4°
Drops below altitude 10° 09:05:47 10° 28° (NNE) 1,932 - -40.6°
Sets 09:08:03 0° 28° (NNE) 2,852 - -40.1°
Exits shadow 09:08:14 -1° 28° (NNE) 2,930 8.4 -40.1°
